Regional Weather Roundup
Issued by NWS

Home | Current Version | Previous Version | Text Only | Print | Product List | Glossary On
Versions: 1 2 3 4 5 6 7 8 9 10 11 12 13 14 15 16 17 18 19 20 21 22 23 24 25 26 27 28 29 30 31 32 33 34 35 36 37 38 39 40 41 42 43 44 45 46 47 48 49 50
000
ASUS43 KLSX 021107
RWRMO

WEATHER SUMMARY FOR MISSOURI
NATIONAL WEATHER SERVICE SPRINGFIELD MO
600 AM CDT THU JUL 02 2015

NOTE: "FAIR" INDICATES FEW OR NO CLOUDS BELOW 12,000 FEET WITH NO
       SIGNIFICANT WEATHER AND/OR OBSTRUCTIONS TO VISIBILITY.
       CURRENT SKY AND/OR WEATHER CONDITIONS ARE NOT AVAILABLE FOR
       CHILLICOTHE AND FARMINGTON.

MOZ001>031-035>038-043-044-053-054-021200-
...NORTHERN AND WESTERN MISSOURI...

CITY           SKY/WX    TMP DP  RH WIND       PRES   REMARKS
KANSAS CTY INT CLOUDY    72  69  90 NE12      29.88R
KANSAS C DTWN  CLOUDY    74  70  87 NE10      29.86R
LEE`S SUMMIT   CLOUDY    71  68  90 E9        29.87R
ST JOSEPH      CLOUDY    71  67  87 NE6       29.89R
CHILLICOTHE      N/A     70  67  90 VRB6      29.90S
KIRKSVILLE     CLOUDY    65  62  90 NE8       29.92S FOG

$$
MOZ066>068-077>081-088>096-101>105-021200-
...SOUTHWEST MISSOURI...

CITY           SKY/WX    TMP DP  RH WIND       PRES   REMARKS
SPRINGFIELD    CLOUDY    70  67  90 VRB6      29.87R
JOPLIN         CLOUDY    76  71  85 SE5       29.83R

$$
MOZ032>034-039>042-045>050-055>058-069>072-021200-
...CENTRAL MISSOURI...

CITY           SKY/WX    TMP DP  RH WIND       PRES   REMARKS
COLUMBIA       CLOUDY    71  69  93 NE6       29.86R
JEFFERSON CITY CLOUDY    71  68  90 N6        29.85R
ROLLA          MOCLDY    68  67  96 CALM      29.84S
SEDALIA        CLOUDY    71  69  93 MISG      29.87R
WHITEMAN AFB   CLOUDY    71  69  96 E9        29.85R
WARRENSBURG    CLOUDY    70  68  94 NE5       29.85S
OSAGE BEACH    CLEAR     66  64  94 CALM      29.84R

$$
MOZ051-052-059>065-021200-
...EAST CENTRAL MISSOURI...

CITY           SKY/WX    TMP DP  RH WIND       PRES   REMARKS
ST LOUIS INTL  LGT RAIN  73  69  87 NE6       29.85R
SPIRIT OF STL  CLOUDY    71  70  96 CALM      29.84R
ST CHARLES     CLOUDY    67  65  93 NE14      29.85R FOG

$$
MOZ072>076-082>087-097>100-106>115-021200-
...SOUTH CENTRAL AND SOUTHEAST MISSOURI...

CITY           SKY/WX    TMP DP  RH WIND       PRES   REMARKS
CAPE GIRARDEAU CLOUDY    69  68  96 CALM      29.85S
FARMINGTON     CLOUDY    66  64  94 CALM      29.90S
WEST PLAINS    CLOUDY    70  66  87 SW8       29.88R

$$


USA.gov is the U.S. government's official web portal to all federal, state and local government web resources and services.